Location: Unspecified
(0.0000°N, 0.0000°E)
Time: 12:01:24
(UTC+00:00)

Vanguard 2 - Pass Details

Date: 19 December 2018
Orbit: 552 x 2939 km, 32.9° (Epoch: 25 March)

Event Time Altitude Azimuth Distance (km) Brightness Sun altitude
Rises 14:11:57 0° 235° (SW) 4,729 12.2 49.8°
Reaches altitude 10° 14:15:45 10° 234° (SW) 3,350 11.7 49.0°
Maximum altitude 14:23:32 87° 144° (SE) 892 8.8 47.4°
Drops below altitude 10° 14:28:23 10° 56° (NE) 2,130 9.5 46.5°
Sets 14:30:20 0° 56° (NE) 2,907 10.1 46.1°
